This is the latest recevied weather packets stored in our database for station/object SP3SWJ-13. If no packets are shown the sender has not sent any weather packets the latest 10 day(s).
| Time | Temp. | Humidity | Pressure | Rain* | Wind** | Luminosity | Snow |
|---|---|---|---|---|---|---|---|
| 1777532531 | 8.89° C | 42% | 1022.2 hPa | - | - | 151 W/m² | - |
| 1777532231 | 8.89° C | 42% | 1022.1 hPa | - | - | 189 W/m² | - |
| 1777531930 | 8.89° C | 42% | 1022.1 hPa | - | - | 165 W/m² | - |
| 1777531628 | 8.89° C | 44% | 1022.1 hPa | - | - | 208 W/m² | - |
| 1777531327 | 8.33° C | 46% | 1022 hPa | - | - | 175 W/m² | - |
| 1777531026 | 8.33° C | 46% | 1022 hPa | - | - | 165 W/m² | - |
| 1777530726 | 8.33° C | 47% | 1022.1 hPa | - | - | 162 W/m² | - |
| 1777530425 | 8.33° C | 49% | 1022 hPa | - | - | 145 W/m² | - |
| 1777530124 | 7.78° C | 50% | 1022 hPa | - | - | 148 W/m² | - |
| 1777529823 | 7.78° C | 50% | 1022 hPa | - | - | 115 W/m² | - |
| 1777529522 | 7.78° C | 51% | 1021.9 hPa | - | - | 116 W/m² | - |
| 1777529221 | 7.22° C | 51% | 1021.9 hPa | - | - | 116 W/m² | - |
| 1777528920 | 7.22° C | 52% | 1021.8 hPa | - | - | 109 W/m² | - |
| 1777528620 | 6.67° C | 52% | 1021.8 hPa | - | - | 97 W/m² | - |
| 1777528319 | 6.67° C | 53% | 1021.8 hPa | - | - | 127 W/m² | - |
| 1777528018 | 6.11° C | 56% | 1021.7 hPa | - | - | 118 W/m² | - |
| 1777527717 | 6.11° C | 56% | 1021.8 hPa | - | - | 94 W/m² | - |
| 1777527416 | 5.56° C | 60% | 1021.9 hPa | - | - | 88 W/m² | - |
| 1777527115 | 5.56° C | 62% | 1021.9 hPa | - | - | 86 W/m² | - |
| 1777526814 | 5° C | 62% | 1021.8 hPa | - | - | 82 W/m² | - |
| 1777526513 | 5° C | 62% | 1021.9 hPa | - | - | 82 W/m² | - |
| 1777526213 | 4.44° C | 61% | 1022 hPa | - | - | 78 W/m² | - |
| 1777525911 | 4.44° C | 61% | 1021.9 hPa | - | - | 69 W/m² | - |
| 1777525611 | 3.89° C | 61% | 1022 hPa | - | - | 57 W/m² | - |
| 1777525310 | 3.89° C | 63% | 1022 hPa | - | - | 63 W/m² | - |
* Rain since midnight (hover to see other rain measurements)
** Current wind speed in m/s (hover to see current wind gust speed)